TimeEST,TemperatureF,Dew PointF,Humidity,Sea Level PressureIn,VisibilityMPH,Wind Direction,Wind SpeedMPH,Gust SpeedMPH,PrecipitationIn,Events,Conditions,WindDirDegrees,DateUTC
12:20 AM,41.0,41.0,100,29.99,5.0,North,6.9,-,N/A,,Overcast,360,2012-12-08 05:20:00
12:40 AM,41.0,41.0,100,29.98,5.0,NNE,5.8,-,N/A,,Overcast,20,2012-12-08 05:40:00
1:00 AM,41.0,41.0,100,29.97,5.0,NNE,3.5,-,N/A,,Overcast,20,2012-12-08 06:00:00
1:45 AM,41.0,41.0,100,29.97,5.0,NNE,3.5,-,N/A,,Overcast,30,2012-12-08 06:45:00
2:05 AM,41.0,41.0,100,29.97,5.0,North,4.6,-,N/A,,Overcast,360,2012-12-08 07:05:00
2:25 AM,41.0,41.0,100,29.97,5.0,Calm,Calm,-,N/A,,Overcast,0,2012-12-08 07:25:00
2:45 AM,41.0,41.0,100,29.97,3.0,North,3.5,-,N/A,,Overcast,10,2012-12-08 07:45:00
3:10 AM,41.0,41.0,100,29.97,2.5,Calm,Calm,-,N/A,,Overcast,0,2012-12-08 08:10:00
3:30 AM,41.0,41.0,100,29.95,1.5,North,4.6,-,N/A,,Overcast,10,2012-12-08 08:30:00
3:50 AM,41.0,41.0,100,29.95,1.0,Calm,Calm,-,N/A,,Overcast,0,2012-12-08 08:50:00
4:10 AM,41.0,41.0,100,29.95,0.8,North,3.5,-,N/A,,Overcast,360,2012-12-08 09:10:00
4:35 AM,41.0,41.0,100,29.95,0.5,North,3.5,-,N/A,Fog,Fog,360,2012-12-08 09:35:00
4:55 AM,41.0,41.0,100,29.95,0.5,Calm,Calm,-,N/A,Fog,Fog,0,2012-12-08 09:55:00
5:15 AM,41.0,41.0,100,29.94,0.5,Calm,Calm,-,N/A,Fog,Fog,0,2012-12-08 10:15:00
5:35 AM,41.0,41.0,100,29.95,0.8,Calm,Calm,-,N/A,,Overcast,0,2012-12-08 10:35:00
5:50 AM,41.0,41.0,100,29.95,0.5,Calm,Calm,-,N/A,Fog,Fog,0,2012-12-08 10:50:00
6:50 AM,42.8,42.8,100,29.96,0.2,Calm,Calm,-,N/A,Fog,Fog,0,2012-12-08 11:50:00
7:57 AM,42.8,42.8,100,29.97,0.2,Calm,Calm,-,N/A,Fog,Fog,0,2012-12-08 12:57:00
8:55 AM,44.6,44.6,100,29.97,0.3,Calm,Calm,-,N/A,Fog,Fog,0,2012-12-08 13:55:00
10:45 AM,48.2,44.6,87,29.96,7.0,South,4.6,-,N/A,,Scattered Clouds,190,2012-12-08 15:45:00
11:50 AM,51.8,46.4,82,29.94,7.0,SSW,4.6,-,N/A,,Overcast,200,2012-12-08 16:50:00
12:47 PM,53.6,46.4,77,29.92,7.0,WSW,4.6,-,N/A,,Mostly Cloudy,240,2012-12-08 17:47:00
1:45 PM,55.4,48.2,77,29.92,7.0,SW,4.6,-,N/A,,Overcast,220,2012-12-08 18:45:00
2:59 PM,57.2,48.2,72,29.91,10.0,Calm,Calm,-,N/A,,Scattered Clouds,0,2012-12-08 19:59:00
3:59 PM,57.2,-9999,N/A,29.92,10.0,Calm,Calm,-,N/A,,Mostly Cloudy,0,2012-12-08 20:59:00
4:50 PM,53.6,48.2,82,29.93,10.0,Calm,Calm,-,N/A,,Mostly Cloudy,0,2012-12-08 21:50:00
5:47 PM,51.8,48.2,88,29.94,7.0,Calm,Calm,-,N/A,,Overcast,0,2012-12-08 22:47:00
6:45 PM,51.8,48.2,88,29.96,10.0,Calm,Calm,-,N/A,,Overcast,0,2012-12-08 23:45:00
7:47 PM,48.2,48.2,100,29.98,7.0,Calm,Calm,-,N/A,,Mostly Cloudy,0,2012-12-09 00:47:00
8:10 PM,48.2,46.4,93,29.99,10.0,Calm,Calm,-,N/A,,Overcast,0,2012-12-09 01:10:00
8:30 PM,46.4,46.4,100,30.00,7.0,Calm,Calm,-,N/A,,Overcast,0,2012-12-09 01:30:00
8:50 PM,48.2,46.4,93,30.01,10.0,North,5.8,-,N/A,,Overcast,360,2012-12-09 01:50:00
9:10 PM,50.0,50.0,100,30.01,7.0,NNE,3.5,-,N/A,Rain,Light Rain,30,2012-12-09 02:10:00
9:35 PM,50.0,48.2,94,30.02,7.0,North,3.5,-,N/A,,Overcast,350,2012-12-09 02:35:00
9:55 PM,48.2,48.2,100,30.02,7.0,Calm,Calm,-,N/A,,Overcast,0,2012-12-09 02:55:00
10:15 PM,48.2,48.2,100,30.02,5.0,Calm,Calm,-,N/A,,Mostly Cloudy,0,2012-12-09 03:15:00
10:35 PM,46.4,46.4,100,30.03,4.0,Calm,Calm,-,N/A,,Overcast,0,2012-12-09 03:35:00
11:20 PM,46.4,46.4,100,30.05,4.0,Calm,Calm,-,N/A,,Overcast,0,2012-12-09 04:20:00
11:40 PM,46.4,46.4,100,30.05,4.0,Calm,Calm,-,N/A,,Overcast,0,2012-12-09 04:40:00